{"data":{"norad_id":66623,"epoch":"2026-09-20T10:11:08.840832Z","epoch_age_seconds":92978,"freshness":"FRESH","line1":"1 66623U 25271G   26263.42440788  .00019601  00000+0  58947-3 0  9998","line2":"2 66623  53.1575 310.2925 0002856  27.3041 332.8111 15.34413311 47456","mean_motion":15.34413311,"eccentricity":0.0002856,"inclination_deg":53.1575,"raan_deg":310.2925,"arg_perigee_deg":27.3041,"mean_anomaly_deg":332.8111,"bstar":0.00058947,"rev_number":4745,"period_min":93.846943954203,"perigee_km":460.70994472248,"apogee_km":464.61741006941,"semimajor_km":6840.8006773959,"source":"CELESTRAK","updated_at":"2026-09-21T09:00:35.983173Z"}}